| time (UTC) | temp F | wind direction | speed MPH | gust MPH | rain 1hr in | rain 24hr in | rain mn in | humidity % | barometer mb |
| 20260905134517 | 91 | 283 | 0.0 | 0.0 | 0.00 | 0.00 | 0.00 | 2 | 1014.7 |
| 20260905133019 | 90 | 283 | 0.0 | 0.0 | 0.00 | 0.00 | 0.00 | 1 | 1014.7 |
| 20260905131508 | 90 | 265 | 0.0 | 0.0 | 0.00 | 0.00 | 0.00 | 1 | 1014.8 |
| 20260905130006 | 88 | 44 | 0.0 | 0.0 | 0.00 | 0.00 | 0.00 | 1 | 1014.8 |
| 20260905124600 | 86 | 44 | 0.0 | 0.0 | 0.00 | 0.00 | 0.00 | 1 | 1014.7 |
| 20260905123058 | 84 | 44 | 0.0 | 0.0 | 0.00 | 0.00 | 0.00 | 1 | 1014.6 |
| 20260905121555 | 82 | 53 | 0.0 | 0.0 | 0.00 | 0.00 | 0.00 | 1 | 1014.6 |
| 20260905120048 | 79 | 53 | 0.0 | 0.0 | 0.00 | 0.00 | 0.00 | 1 | 1014.6 |
| 20260905114542 | 78 | 53 | 0.0 | 0.0 | 0.00 | 0.00 | 0.00 | 1 | 1014.5 |
| 20260905113047 | 0 | 0.0 | 0.0 | 0.00 | 0.00 | 0.00 | 1014.3 | ||
| 20260905111553 | 0 | 0.0 | 0.0 | 0.00 | 0.00 | 0.00 | 1014.2 | ||
| 20260905110038 | 0 | 0.0 | 0.0 | 0.00 | 0.00 | 0.00 | 1014.1 | ||
| 20260905104527 | 0 | 0.0 | 0.0 | 0.00 | 0.00 | 0.00 | 1014.1 | ||
| 20260905103020 | 0 | 0.0 | 0.0 | 0.00 | 0.00 | 0.00 | 1014.0 | ||
| 20260905101516 | 0 | 0.0 | 0.0 | 0.00 | 0.00 | 0.00 | 1013.9 | ||
| 20260905100011 | 0 | 0.0 | 0.0 | 0.00 | 0.00 | 0.00 | 1013.7 | ||
| 20260905094507 | 0 | 0.0 | 0.0 | 0.00 | 0.00 | 0.00 | 1013.7 | ||
| 20260905093003 | 0 | 0.0 | 0.0 | 0.00 | 0.00 | 0.00 | 1013.7 | ||
| 20260905091600 | 0 | 0.0 | 0.0 | 0.00 | 0.00 | 0.00 | 1013.5 | ||
| 20260905090054 | 0 | 0.0 | 0.0 | 0.00 | 0.00 | 0.00 | 1013.6 | ||
| 20260905084556 | 0 | 0.0 | 0.0 | 0.00 | 0.00 | 0.00 | 1013.4 | ||
| 20260905083045 | 0 | 0.0 | 0.0 | 0.00 | 0.00 | 0.00 | 1013.5 | ||
| 20260905081541 | 0 | 0.0 | 0.0 | 0.00 | 0.00 | 0.00 | 1013.5 | ||
| 20260905080048 | 0 | 0.0 | 0.0 | 0.00 | 0.00 | 0.00 | 1013.5 | ||
| 20260905074537 | 0 | 0.0 | 0.0 | 0.00 | 0.00 | 0.00 | 1013.6 | ||
| 20260905073028 | 0 | 0.0 | 0.0 | 0.00 | 0.00 | 0.00 | 1013.5 | ||
| 20260905071526 | 0 | 0.0 | 0.0 | 0.00 | 0.00 | 0.00 | 1013.7 | ||
| 20260905070019 | 0 | 0.0 | 0.0 | 0.00 | 0.00 | 0.00 | 1013.6 | ||
| 20260905064516 | 0 | 0.0 | 0.0 | 0.00 | 0.00 | 0.00 | 1013.9 | ||
| 20260905063011 | 0 | 0.0 | 0.0 | 0.00 | 0.00 | 0.00 | 1014.0 | ||
| 20260905061509 | 0 | 0.0 | 0.0 | 0.00 | 0.00 | 0.00 | 1014.0 | ||
| 20260905060002 | 0 | 0.0 | 0.0 | 0.00 | 0.00 | 0.00 | 1014.1 | ||
| 20260905054558 | 0 | 0.0 | 0.0 | 0.00 | 0.00 | 0.00 | 1014.3 | ||
| 20260905053103 | 0 | 0.0 | 0.0 | 0.00 | 0.00 | 0.00 | 1014.3 | ||
| 20260905051552 | 0 | 0.0 | 0.0 | 0.00 | 0.00 | 0.00 | 1014.5 | ||
| 20260905050045 | 0 | 0.0 | 0.0 | 0.00 | 0.00 | 0.00 | 1014.6 | ||
| 20260905044542 | 0 | 0.0 | 0.0 | 0.00 | 0.00 | 0.00 | 1014.8 | ||
| 20260905043046 | 0 | 0.0 | 0.0 | 0.00 | 0.00 | 0.00 | 1014.7 | ||
| 20260905041532 | 0 | 0.0 | 0.0 | 0.00 | 0.00 | 0.00 | 1014.7 | ||
| 20260905040032 | 0 | 0.0 | 0.0 | 0.00 | 0.00 | 0.00 | 1014.8 | ||
| 20260905034525 | 0 | 0.0 | 0.0 | 0.00 | 0.00 | 0.00 | 1014.7 | ||
| 20260905033045 | 0 | 0.0 | 0.0 | 0.00 | 0.00 | 0.00 | 1014.8 | ||
| 20260905031515 | 0 | 0.0 | 0.0 | 0.00 | 0.00 | 0.00 | 1015.0 | ||
| 20260905030014 | 0 | 0.0 | 0.0 | 0.00 | 0.00 | 0.00 | 1015.2 | ||
| 20260905024507 | 0 | 0.0 | 0.0 | 0.00 | 0.00 | 0.00 | 1015.2 | ||
| 20260905023001 | 82 | 134 | 0.0 | 0.0 | 0.00 | 0.00 | 0.00 | 1 | 1015.1 |
| 20260905021559 | 83 | 139 | 0.0 | 0.0 | 0.00 | 0.00 | 0.00 | 1 | 1015.1 |
| 20260905020052 | 83 | 139 | 0.0 | 0.0 | 0.00 | 0.00 | 0.00 | 1 | 1015.0 |
| 20260905014551 | 83 | 139 | 0.0 | 0.0 | 0.00 | 0.00 | 0.00 | 1 | 1014.9 |
| 20260905013044 | 84 | 139 | 0.0 | 0.0 | 0.00 | 0.00 | 0.00 | 1 | 1015.0 |
| 20260905011541 | 84 | 139 | 0.0 | 0.0 | 0.00 | 0.00 | 0.00 | 1 | 1015.0 |
| 20260905010041 | 84 | 139 | 0.0 | 0.0 | 0.00 | 0.00 | 0.00 | 1 | 1014.8 |
| 20260905004531 | 84 | 139 | 0.0 | 0.0 | 0.00 | 0.00 | 0.00 | 1 | 1014.8 |
| 20260905003026 | 85 | 139 | 0.0 | 0.0 | 0.00 | 0.00 | 0.00 | 1 | 1014.7 |
| 20260905001524 | 85 | 139 | 0.0 | 0.0 | 0.00 | 0.00 | 0.00 | 1 | 1014.5 |
| 20260905000017 | 86 | 139 | 0.0 | 0.0 | 0.00 | 0.00 | 0.00 | 1 | 1014.5 |
| 20260904234512 | 86 | 148 | 0.0 | 0.0 | 0.00 | 0.02 | 0.00 | 1 | 1014.3 |
| 20260904233008 | 87 | 149 | 0.0 | 0.0 | 0.00 | 0.02 | 0.00 | 28 | 1014.1 |
| 20260904231508 | 88 | 248 | 0.0 | 0.0 | 0.00 | 0.02 | 0.00 | 45 | 1014.1 |
| 20260904230113 | 88 | 314 | 0.0 | 0.0 | 0.00 | 0.02 | 0.00 | 51 | 1013.9 |
| 20260904224556 | 89 | 32 | 0.0 | 0.0 | 0.00 | 0.16 | 0.00 | 54 | 1013.8 |
| 20260904223053 | 89 | 11 | 0.0 | 0.0 | 0.00 | 0.16 | 0.00 | 58 | 1013.9 |
| 20260904221547 | 91 | 3 | 0.0 | 0.0 | 0.00 | 0.16 | 0.00 | 61 | 1013.7 |
| 20260904220045 | 92 | 185 | 0.0 | 0.0 | 0.00 | 0.16 | 0.00 | 61 | 1013.6 |
| 20260904214538 | 94 | 167 | 0.0 | 0.0 | 0.00 | 0.16 | 0.00 | 60 | 1013.6 |
| 20260904213033 | 94 | 217 | 0.0 | 1.0 | 0.00 | 0.16 | 0.00 | 60 | 1013.7 |
| 20260904211529 | 95 | 11 | 0.0 | 1.0 | 0.00 | 0.16 | 0.00 | 58 | 1013.6 |
| 20260904210026 | 95 | 40 | 0.0 | 0.0 | 0.00 | 0.16 | 0.00 | 59 | 1013.4 |
| 20260904204531 | 96 | 12 | 0.0 | 0.0 | 0.00 | 0.16 | 0.00 | 59 | 1013.4 |
| 20260904203026 | 96 | 73 | 0.0 | 1.0 | 0.00 | 0.16 | 0.00 | 58 | 1013.7 |
| 20260904201525 | 96 | 260 | 0.0 | 1.0 | 0.00 | 0.16 | 0.00 | 59 | 1013.8 |
| 20260904200026 | 96 | 208 | 0.0 | 1.0 | 0.00 | 0.16 | 0.00 | 58 | 1013.9 |
| 20260904194517 | 95 | 62 | 0.0 | 1.0 | 0.00 | 0.16 | 0.00 | 59 | 1014.0 |
| 20260904193013 | 97 | 100 | 0.0 | 0.0 | 0.00 | 0.16 | 0.00 | 58 | 1014.2 |
| 20260904191509 | 97 | 83 | 0.0 | 1.0 | 0.00 | 0.16 | 0.00 | 58 | 1014.4 |
| 20260904190005 | 97 | 210 | 0.0 | 1.0 | 0.00 | 0.16 | 0.00 | 58 | 1014.6 |
| 20260904184600 | 97 | 229 | 0.0 | 0.0 | 0.00 | 0.23 | 0.00 | 58 | 1014.6 |
| 20260904183112 | 97 | 239 | 0.0 | 1.0 | 0.00 | 0.23 | 0.00 | 57 | 1014.9 |
| 20260904181551 | 97 | 127 | 0.0 | 0.0 | 0.00 | 0.23 | 0.00 | 56 | 1015.0 |
| 20260904180047 | 97 | 329 | 0.0 | 1.0 | 0.00 | 0.23 | 0.00 | 57 | 1015.0 |
| 20260904174542 | 96 | 46 | 0.0 | 1.0 | 0.00 | 0.23 | 0.00 | 59 | 1015.2 |
| 20260904173038 | 97 | 345 | 0.0 | 0.0 | 0.00 | 0.23 | 0.00 | 56 | 1015.3 |
| 20260904171540 | 97 | 325 | 0.0 | 1.0 | 0.00 | 0.23 | 0.00 | 58 | 1015.4 |
| 20260904170028 | 97 | 297 | 0.0 | 1.0 | 0.00 | 0.23 | 0.00 | 59 | 1015.5 |
| 20260904164524 | 97 | 86 | 0.0 | 1.0 | 0.00 | 0.23 | 0.00 | 59 | 1015.6 |
| 20260904163019 | 96 | 120 | 0.0 | 1.0 | 0.00 | 0.23 | 0.00 | 59 | 1015.6 |
| 20260904161515 | 95 | 34 | 0.0 | 1.0 | 0.00 | 0.23 | 0.00 | 59 | 1015.8 |
| 20260904160012 | 96 | 308 | 0.0 | 1.0 | 0.00 | 0.23 | 0.00 | 58 | 1015.9 |
| 20260904154506 | 96 | 158 | 0.0 | 1.0 | 0.00 | 0.23 | 0.00 | 57 | 1016.0 |
| 20260904153002 | 94 | 242 | 0.0 | 0.0 | 0.00 | 0.23 | 0.00 | 49 | 1015.9 |
| 20260904151558 | 93 | 226 | 0.0 | 1.0 | 0.00 | 0.23 | 0.00 | 42 | 1016.0 |
| 20260904150054 | 93 | 172 | 0.0 | 0.0 | 0.00 | 0.23 | 0.00 | 45 | 1015.7 |
| 20260904144548 | 93 | 208 | 0.0 | 0.0 | 0.00 | 0.23 | 0.00 | 36 | 1015.6 |
| 20260904143044 | 92 | 257 | 0.0 | 0.0 | 0.00 | 0.23 | 0.00 | 26 | 1015.6 |
| 20260904141540 | 91 | 97 | 0.0 | 0.0 | 0.00 | 0.23 | 0.00 | 1 | 1015.5 |
| 20260904140039 | 90 | 216 | 0.0 | 0.0 | 0.00 | 0.23 | 0.00 | 1 | 1015.5 |